This demonstration page uses our WeatherBlox Daily Observations layout. Learn more.

39.29038, -76.61219

Hourly Observations for July 24, 2018

Temp ( °F °C ) Dew Point ( °F °C ) Humidity (%) Winds ( mph kmh ) Pressure ( in mb ) Visibility ( mi km ) Precip ( " mm )
12:54 am 00:54 undefined 79 26.1 76 24.4 90 90 undefined N/A 30.03 1017 N/A 0.03 0.762
1:54 am 01:54 undefined 78 25.6 76 24.4 93 93 undefined N/A 30.03 1017 N/A 0.06 1.524
2:54 am 02:54 undefined 76 24.4 73 22.8 91 91 undefined N/A 30.03 1017 N/A 0.2 5.08
3:54 am 03:54 undefined 76 24.4 73 22.8 91 91 undefined N/A 30.07 1018 N/A 0.01 0.254
4:54 am 04:54 undefined 76 24.4 74 23.3 94 94 undefined N/A 30.05 1018 N/A 0.02 0.508
5:54 am 05:54 undefined 75 23.9 74 23.3 96 96 undefined N/A 30.06 1018 N/A 0.09 2.286
6:54 am 06:54 undefined 76 24.4 74 23.3 94 94 undefined N/A 30.08 1019 N/A 0.13 3.302
7:54 am 07:54 undefined 76 24.4 73 22.8 91 91 undefined N/A 30.08 1019 N/A 0.01 0.254
8:54 am 08:54 undefined 77 25 73 22.8 88 88 undefined N/A 30.1 1019 N/A 0 0
9:54 am 09:54 undefined 76 24.4 74 23.3 94 94 undefined N/A 30.06 1018 N/A 0.05 1.27
10:54 am 10:54 undefined 77 25 74 23.3 90 90 undefined N/A 30.08 1019 N/A 0.17 4.318
11:54 am 11:54 undefined 76 24.4 74 23.3 94 94 undefined N/A 30.09 1019 N/A 0.18 4.572
12:54 pm 12:54 undefined 79 26.1 76 24.4 90 90 undefined N/A 30.1 1019 N/A 0.09 2.286
1:54 pm 13:54 undefined 80 26.7 75 23.9 85 85 undefined N/A 30.08 1019 N/A 0 0
2:54 pm 14:54 undefined 83 28.3 74 23.3 74 74 undefined N/A 30.05 1018 N/A 0 0
3:54 pm 15:54 undefined 81 27.2 74 23.3 79 79 undefined N/A 30.01 1016 N/A 0 0
4:54 pm 16:54 undefined 81 27.2 74 23.3 79 79 undefined N/A 30 1016 N/A 0 0
5:54 pm 17:54 undefined 81 27.2 75 23.9 82 82 undefined N/A 30.01 1016 N/A 0 0
6:54 pm 18:54 undefined 81 27.2 73 22.8 77 77 undefined N/A 30 1016 N/A 0 0
7:54 pm 19:54 undefined 80 26.7 73 22.8 79 79 undefined N/A 29.99 1016 N/A 0 0
8:54 pm 20:54 undefined 79 26.1 75 23.9 88 88 undefined N/A 29.98 1015 N/A 0 0
9:54 pm 21:54 undefined 78 25.6 75 23.9 90 90 undefined N/A 30.01 1016 N/A 0.07 1.778
10:54 pm 22:54 undefined 76 24.4 74 23.3 94 94 undefined N/A 29.99 1016 N/A 0.05 1.27
11:54 pm 23:54 undefined 77 25 75 23.9 94 94 undefined N/A 29.98 1015 N/A 0.62 15.748

Powered by AerisWeather